Theta_e
297 297 297 297 297 297 298 298 300 301 302 303 305 305 306 309 310 311 312 314 315 316 317 318 319 319 320 320 320 319 320 320 320 320 320 320 320 320 321 321 322 322 323 323 323 323 323 323 323 323 323 322 321 321 321 320 319 319 317 315 313 310 307 304 302 299 298 297 296 296 296 296 296 296 296 296 296 296 295 295 295 296 297 297 297
297 296 296 296 296 296 297 297 298 299 299 301 302 303 305 306 307 308 309 311 312 312 314 315 315 316 317 317 317 317 316 316 316 315 315 316 316 316 317 318 319 319 319 318 318 318 318 319 319 319 320 320 320 319 318 318 318 317 315 313 311 309 307 305 301 299 297 296 296 296 296 296 296 296 296 296 296 296 296 295 295 295 296 296 296
297 296 295 295 295 296 296 296 296 297 298 299 301 302 303 304 305 306 307 308 309 310 311 311 311 313 313 313 313 312 311 311 311 310 310 311 310 310 311 312 313 314 315 315 315 314 314 315 315 315 316 315 316 315 315 315 315 315 314 312 309 306 304 303 301 299 298 297 295 296 298 298 297 296 295 296 296 296 296 296 296 295 295 296 296
297 296 295 295 295 295 295 295 295 296 297 298 299 300 301 302 303 304 305 305 306 307 308 308 309 310 310 309 310 309 308 308 308 307 306 306 304 304 305 305 306 307 309 310 311 311 311 311 311 312 312 312 312 312 311 312 312 312 312 311 308 304 302 301 300 299 298 297 296 296 295 296 299 297 294 295 296 296 296 296 296 295 295 295 295
297 297 295 294 294 294 294 295 295 295 295 296 297 297 299 300 301 302 303 304 304 305 306 307 307 307 307 307 307 306 305 305 304 304 303 303 302 302 302 302 302 302 304 304 306 307 308 308 308 309 309 309 309 309 309 309 309 309 309 308 306 304 303 301 300 298 297 298 297 297 295 296 301 298 293 295 296 295 296 295 295 295 295 295 295
296 296 295 294 293 294 294 294 294 294 294 295 295 296 297 298 299 300 301 302 303 303 304 305 305 305 305 304 303 302 301 300 300 301 302 302 302 302 302 302 301 301 301 301 302 302 303 304 305 306 306 306 306 307 307 307 307 307 307 306 305 304 303 300 299 299 298 297 296 297 296 297 299 297 295 298 297 294 295 295 295 295 295 296 295
296 295 293 293 293 293 293 293 293 293 293 294 295 295 296 297 297 298 299 299 300 301 302 303 303 302 302 301 300 299 298 298 299 300 300 301 301 301 301 302 301 301 301 301 300 300 300 301 301 302 303 303 304 304 305 305 305 305 305 305 304 304 303 299 299 299 298 297 296 296 296 296 296 295 297 299 298 297 295 293 295 295 295 295 295
297 296 294 292 293 292 292 292 292 293 293 293 294 294 294 295 296 296 297 297 298 299 300 300 300 300 300 299 299 298 298 298 298 299 299 300 300 300 300 300 300 301 301 301 300 300 300 300 300 300 300 300 300 301 302 303 303 303 303 302 302 302 302 300 299 299 297 297 297 296 296 296 295 295 295 295 296 298 297 295 294 294 295 295 295
296 296 294 292 292 292 292 292 292 292 293 293 293 293 294 294 295 296 296 296 296 297 298 298 298 298 298 297 297 297 297 297 298 298 298 299 299 298 299 299 299 299 299 299 299 299 299 299 299 299 299 299 299 299 299 300 300 301 301 301 301 300 300 300 299 298 298 297 298 297 296 296 295 295 295 294 295 295 297 299 295 293 294 294 294
296 294 293 293 292 292 292 292 292 292 292 292 293 293 293 294 295 295 294 295 295 296 296 296 296 296 296 296 295 295 295 296 296 296 296 296 296 296 297 297 297 298 298 298 298 298 298 299 299 299 299 299 298 298 298 298 298 298 299 299 300 300 300 299 298 298 298 297 297 297 296 296 295 295 294 294 295 294 295 297 293 291 294 294 295
297 294 292 292 292 292 291 291 291 291 291 292 292 292 292 292 293 293 293 293 294 294 295 295 295 295 294 294 294 293 293 294 293 293 293 293 293 293 294 294 295 295 295 296 296 296 297 297 298 298 299 299 298 298 298 297 297 297 297 297 298 298 299 299 298 298 298 297 297 296 296 296 295 295 295 295 295 294 295 295 293 292 293 293 295
297 296 293 292 292 291 291 291 290 290 290 290 290 290 290 290 291 291 291 291 292 293 293 293 293 293 292 292 291 291 291 291 290 290 289 289 289 289 290 290 291 291 292 292 293 294 294 295 296 297 298 298 298 298 298 297 297 297 297 296 297 297 297 298 298 298 298 297 297 296 296 296 295 295 295 295 295 295 295 295 294 294 293 292 294
298 297 294 292 291 291 291 290 290 290 290 289 289 288 288 288 289 289 288 288 289 289 290 290 289 289 289 288 288 288 288 288 287 287 286 286 286 286 286 286 287 287 287 288 289 290 291 292 293 294 295 296 296 297 297 296 296 296 296 296 296 296 296 296 297 297 297 297 297 297 296 296 295 295 295 295 295 295 295 294 294 294 293 292 294
298 297 295 292 291 292 291 290 290 289 289 289 288 288 288 287 287 287 286 286 287 287 287 287 286 286 286 286 286 286 286 285 285 285 285 285 285 285 285 285 285 285 285 285 286 286 287 288 289 290 291 292 293 294 294 294 295 295 295 295 295 295 295 295 295 296 296 296 296 296 296 296 295 295 295 294 294 294 294 294 295 295 293 292 293
297 297 294 292 292 292 291 290 290 289 289 289 289 288 288 287 287 287 286 286 286 286 286 285 285 285 285 285 285 285 285 285 285 285 285 285 285 285 285 285 285 285 285 285 285 285 285 285 286 286 286 287 288 289 290 291 293 293 294 294 294 294 294 294 295 295 295 295 295 295 296 295 295 295 295 294 294 294 294 294 294 295 294 293 294
297 297 294 292 292 292 291 290 289 288 288 288 288 288 288 288 287 287 287 286 286 286 286 286 285 285 285 285 285 285 285 285 285 285 285 285 285 285 285 285 285 285 285 285 285 285 285 285 285 285 285 285 285 286 286 287 288 289 291 292 293 293 293 294 294 294 294 294 294 295 295 295 295 295 295 294 294 293 293 293 294 294 295 295 295
298 297 294 292 292 292 290 289 288 288 288 288 288 288 288 288 287 287 287 287 287 287 286 286 286 286 286 286 286 286 286 286 286 286 286 286 286 285 285 285 285 286 285 285 286 286 285 285 285 285 285 285 285 285 285 285 286 286 287 288 289 291 292 293 293 293 293 293 293 294 294 294 294 294 294 294 294 294 293 293 293 293 294 294 294
298 296 292 291 292 292 290 289 288 288 288 287 288 287 287 287 287 287 287 287 287 287 287 286 286 286 286 286 286 286 286 286 286 286 286 286 286 286 286 286 286 286 286 285 285 285 285 285 285 285 285 285 285 285 285 285 285 285 285 285 286 287 289 290 291 292 292 293 292 293 293 293 293 293 294 294 294 294 293 293 292 292 293 293 293
298 296 293 292 292 292 291 290 289 288 288 287 287 287 287 287 287 287 287 287 287 287 287 287 286 286 286 286 286 286 286 286 286 286 286 286 286 286 286 286 286 286 286 286 286 285 285 285 285 285 285 285 285 285 285 285 285 285 285 285 285 285 286 286 287 289 290 291 292 292 292 292 292 293 293 293 293 293 293 293 292 292 292 292 292
297 297 294 292 292 293 292 291 291 290 289 288 287 287 287 287 287 287 287 286 287 287 287 287 287 286 286 286 286 286 286 286 286 286 285 285 285 285 285 285 285 285 285 285 285 285 285 285 285 285 285 285 285 285 285 285 285 285 285 285 285 285 285 285 285 286 286 288 289 290 291 291 292 292 292 292 292 292 292 292 292 292 292 291 291
295 296 294 292 292 293 292 292 292 291 290 289 288 287 286 286 286 286 286 286 286 286 286 286 286 286 286 285 285 285 285 285 285 285 285 285 285 284 284 284 284 284 284 284 284 284 284 284 284 284 285 285 285 285 284 284 284 284 284 285 285 285 285 285 285 285 285 285 286 287 288 289 290 291 291 291 291 291 291 292 292 291 291 291 291
296 294 293 291 292 292 292 292 292 292 291 290 289 288 287 287 286 286 286 286 286 286 286 286 286 286 285 285 285 285 285 285 285 285 285 285 284 284 284 283 283 283 283 283 283 283 283 283 283 283 283 284 284 284 284 284 284 284 284 284 284 284 284 285 285 285 285 285 285 285 285 286 287 289 290 290 291 291 291 291 291 291 291 291 290
295 293 292 291 292 293 293 293 292 292 291 290 289 288 288 287 287 286 286 286 286 286 286 286 286 286 286 286 285 285 285 285 285 284 284 284 284 283 283 283 283 282 282 282 282 282 281 281 281 282 282 282 282 283 283 283 283 283 284 284 284 283 283 284 284 284 284 285 285 285 285 285 285 286 287 288 289 290 290 290 290 290 290 290 290
294 293 291 291 292 292 292 293 292 291 291 290 289 289 288 288 287 287 286 286 286 286 286 286 286 286 286 286 286 285 285 285 284 284 284 284 283 283 282 282 282 282 282 281 281 281 281 281 281 281 281 281 281 281 281 282 282 282 282 282 283 283 283 283 283 283 284 284 284 284 284 285 285 284 285 286 287 288 289 290 290 290 290 290 290
295 294 292 291 291 291 292 293 292 291 290 290 289 289 288 288 287 287 286 286 286 286 286 286 286 286 286 286 286 285 285 284 284 284 283 283 283 282 282 282 281 281 281 281 280 280 280 280 280 280 280 280 280 280 280 280 280 280 280 281 281 281 281 282 282 282 283 283 283 284 284 284 285 285 285 284 285 286 287 288 289 289 289 289 289
296 296 294 292 290 290 292 292 292 291 290 290 289 289 289 288 287 287 287 287 287 287 287 287 287 287 287 286 286 285 285 285 284 284 283 283 282 282 282 281 281 281 281 280 280 280 280 279 279 279 279 279 279 279 279 279 279 279 279 279 280 280 280 280 281 281 281 282 282 283 283 284 284 284 285 285 285 285 285 286 287 288 288 289 289
295 295 294 292 290 289 291 292 291 290 290 290 289 289 288 288 287 287 287 287 287 287 287 287 287 287 287 286 286 286 285 285 284 284 283 282 282 281 281 280 280 280 280 280 279 279 279 279 278 279 279 279 279 279 279 279 279 279 279 279 279 279 279 280 280 281 281 281 281 282 282 283 283 284 284 284 285 285 285 285 285 286 287 288 288
294 294 294 294 291 288 288 290 290 290 289 289 289 288 288 288 288 288 287 288 288 288 288 287 287 287 287 286 286 285 285 285 284 284 283 282 281 281 280 280 280 279 279 279 278 278 278 278 278 278 278 278 278 278 278 278 278 278 278 278 279 279 279 280 280 281 281 281 282 282 282 282 283 283 284 284 284 285 285 285 285 285 286 287 288
293 293 293 294 291 287 287 289 289 289 289 289 289 289 288 288 288 288 288 288 288 288 288 288 287 287 286 286 286 285 285 284 284 283 282 281 280 280 280 279 279 278 278 278 277 277 277 277 277 277 277 277 277 277 277 277 278 278 278 279 279 279 280 280 280 281 281 281 281 282 282 282 282 283 283 283 284 284 285 285 285 285 286 287 287
293 293 293 292 289 287 287 288 289 289 289 289 289 289 289 289 289 289 289 288 288 288 288 287 287 287 286 286 285 285 284 284 283 282 281 280 280 279 279 278 278 278 277 277 277 276 276 276 276 277 276 276 277 276 276 277 278 278 279 279 279 279 279 279 280 280 280 280 281 281 282 282 282 283 283 283 283 284 284 284 285 285 286 286 287
293 293 293 290 287 286 287 288 288 289 289 289 289 289 289 289 289 289 288 288 288 287 287 287 286 286 285 285 284 284 283 282 281 280 280 279 279 278 277 277 277 277 277 277 276 276 276 275 275 275 275 275 275 275 276 277 277 278 278 278 278 278 278 279 279 279 279 280 280 280 281 281 282 282 282 283 283 283 283 284 284 285 285 286 287
295 294 294 293 288 286 287 287 288 289 289 288 289 289 288 288 288 288 287 287 287 287 286 286 285 285 284 284 283 283 281 280 279 279 278 278 277 277 276 276 275 275 275 275 275 274 274 274 274 274 274 274 274 274 275 275 276 276 277 277 277 277 278 278 278 278 278 279 279 279 279 280 280 281 282 282 282 283 283 283 283 284 284 285 286
298 297 296 292 289 287 288 289 289 289 288 288 288 288 288 287 287 287 286 286 286 286 285 285 284 283 283 282 281 280 279 278 278 277 277 276 275 275 275 274 274 273 273 273 273 273 272 272 272 272 272 272 272 272 273 273 274 275 275 276 276 276 276 276 276 276 277 277 277 278 278 279 279 280 280 281 282 282 282 282 283 283 284 284 285
298 297 292 289 289 289 289 289 289 288 288 288 288 287 287 286 286 286 286 285 285 285 284 283 282 281 280 279 278 278 277 276 276 275 275 275 274 274 273 272 272 272 272 271 271 270 270 270 269 269 269 269 269 270 271 271 272 272 273 274 274 274 274 275 275 275 275 276 276 276 276 277 278 278 279 280 280 281 281 282 282 283 283 283 284
296 294 289 287 289 289 289 289 288 288 287 287 287 286 286 286 285 285 285 284 284 283 282 281 280 279 278 277 276 276 275 275 274 274 273 273 272 272 271 271 271 271 270 269 269 268 268 268 267 267 267 267 267 268 269 269 270 271 271 272 272 272 272 272 273 273 274 274 274 275 275 276 276 277 277 278 279 279 280 281 282 282 283 283 283
293 291 288 288 289 289 289 289 287 287 287 286 286 285 285 285 285 284 283 283 282 281 279 278 277 276 275 275 274 274 273 273 273 272 272 271 270 270 270 270 269 269 268 267 267 267 266 266 266 266 266 265 265 266 267 268 269 269 270 270 270 270 270 270 270 271 271 272 273 273 274 275 275 275 276 276 277 278 279 279 280 281 282 283 283
289 290 289 289 290 289 289 288 286 286 286 285 284 284 284 283 283 282 281 280 279 278 277 276 275 274 273 273 272 272 272 272 271 270 270 269 268 268 268 268 267 267 266 266 265 265 265 265 265 265 264 264 264 265 266 267 268 268 269 269 269 269 269 269 269 270 270 270 271 272 272 273 273 273 274 274 275 276 277 278 278 279 281 282 283
289 290 289 289 289 288 287 286 285 284 284 283 283 282 282 282 281 280 279 278 277 276 274 274 273 272 272 272 271 271 271 270 269 268 268 268 267 267 267 266 265 265 265 264 264 264 264 264 264 264 264 264 264 264 265 266 266 267 268 268 268 269 269 269 269 269 270 270 270 271 271 272 272 273 273 274 275 275 276 276 277 278 279 280 282
289 289 289 288 287 286 285 285 284 283 282 282 281 281 281 281 280 279 278 277 275 274 273 272 271 271 271 271 271 270 270 269 268 267 267 267 267 267 266 265 264 264 264 263 263 263 263 263 263 263 263 263 263 263 264 265 266 267 268 268 268 269 269 269 269 269 269 269 269 270 270 271 271 272 273 273 274 275 275 276 276 276 277 278 280
288 288 288 287 286 285 284 283 283 282 281 281 281 280 280 279 278 277 276 275 274 273 272 271 271 270 271 270 270 269 268 267 266 266 266 266 266 266 265 264 263 263 263 263 263 263 263 263 263 263 263 263 263 263 263 264 265 267 268 268 269 269 269 269 269 269 269 269 269 270 270 270 271 272 273 273 274 275 275 275 276 276 276 276 277
287 288 287 286 284 284 283 282 282 281 280 280 279 278 278 277 276 275 274 273 273 272 271 270 270 270 270 270 269 268 267 266 266 266 266 266 265 265 264 263 263 263 262 262 262 262 262 262 262 262 262 263 263 263 263 264 265 266 267 268 269 269 269 269 269 269 269 270 270 270 270 270 271 271 272 273 273 274 275 275 276 276 276 276 276
286 286 286 285 283 282 281 281 280 279 279 278 277 277 276 276 275 274 273 272 271 271 270 270 270 270 270 269 268 266 266 265 266 266 265 265 265 264 263 263 262 262 262 262 262 262 262 262 262 262 262 262 263 263 263 264 265 266 267 268 269 269 269 270 270 270 270 270 270 270 270 270 270 271 272 272 273 273 274 274 275 276 276 277 277
285 285 284 284 282 281 280 279 278 278 277 277 276 276 275 275 274 273 272 271 270 269 269 269 269 269 269 268 266 265 265 265 266 265 264 264 264 263 262 262 262 262 262 262 262 262 262 262 262 262 262 262 263 263 263 264 265 266 268 268 269 269 270 270 271 271 271 271 270 270 270 270 270 271 272 272 273 273 274 274 274 275 275 276 277
285 284 284 283 281 280 279 278 277 276 276 276 275 274 274 273 272 271 271 270 269 268 268 268 268 268 268 267 265 265 265 265 265 265 264 263 263 263 262 262 262 261 261 261 261 262 261 261 262 262 262 262 263 264 264 265 265 267 268 269 269 270 270 271 271 271 271 271 270 270 270 271 272 272 273 273 274 274 274 274 274 275 275 276 277
284 283 282 281 280 279 278 276 275 275 274 274 273 273 272 272 271 270 270 269 268 268 267 267 267 267 267 266 265 265 265 265 265 264 263 262 262 262 262 262 261 261 261 261 261 261 261 261 261 262 262 263 264 265 265 266 266 267 268 268 269 270 270 271 271 271 271 271 271 271 272 272 273 273 273 273 273 273 273 273 274 274 275 276 276
282 281 280 279 279 278 276 275 274 273 273 272 272 271 271 271 270 270 269 268 267 267 266 266 267 266 265 264 264 265 265 265 264 263 262 262 262 262 261 261 261 261 261 261 261 261 261 261 262 262 263 264 265 266 266 267 267 267 268 268 268 269 270 270 271 271 271 271 272 272 272 272 272 272 272 272 272 272 273 273 274 274 275 275 276
282 281 279 278 277 276 275 274 273 272 271 271 271 271 270 270 269 269 268 267 266 266 265 266 266 265 264 264 263 264 264 264 263 262 262 262 262 262 261 261 261 261 261 261 261 262 262 262 263 264 265 266 267 267 268 268 268 268 268 268 269 269 269 270 270 270 270 270 271 271 271 271 272 272 272 273 273 273 273 273 274 274 274 275 275
281 280 278 277 276 275 274 273 272 271 270 270 270 270 269 269 268 267 266 266 266 265 264 265 264 264 263 263 263 263 263 262 262 262 262 261 262 262 261 261 261 262 262 262 262 263 263 264 265 266 267 267 268 268 269 269 269 269 270 270 270 271 271 271 270 270 271 270 270 270 270 270 271 271 271 272 272 272 273 273 273 274 274 274 275
279 278 277 276 275 274 273 272 271 270 270 269 270 270 269 268 267 266 265 265 265 264 263 263 263 263 263 263 262 262 262 262 261 261 261 261 262 262 261 262 263 263 263 264 265 265 266 267 267 268 268 269 269 269 269 270 270 271 272 272 272 272 273 273 273 273 273 273 272 272 271 271 271 271 271 272 272 273 273 273 274 274 274 274 275
277 277 275 275 274 273 272 271 270 269 268 269 269 269 268 267 266 265 265 265 264 263 262 263 263 262 262 262 262 262 262 261 261 261 261 261 262 262 263 263 263 264 265 266 266 267 268 268 269 269 269 269 269 270 270 271 271 272 272 273 273 273 273 274 274 274 275 274 274 274 273 273 273 273 273 273 273 273 273 274 274 274 274 275 275
276 275 274 273 272 271 271 270 269 268 268 268 269 269 268 266 266 265 264 264 263 262 262 262 262 262 262 262 262 261 261 261 260 260 260 260 261 262 265 265 264 264 265 266 267 267 268 268 269 269 269 269 269 270 270 271 272 272 272 273 273 273 274 274 275 275 275 274 274 274 274 274 274 274 274 274 274 274 274 274 274 274 274 275 275
Wind_Speed
9 14 18 21 22 24 24 25 26 27 28 28 28 28 27 26 26 26 23 20 19 19 17 15 14 12 12 13 13 13 12 11 12 11 11 10 9 8 8 6 4 3 4 6 8 10 13 16 19 21 22 23 25 27 27 28 28 28 28 27 27 26 25 24 23 22 20 16 14 16 19 20 20 21 22 24 25 23 22 22 23 23 24 25 23
8 13 17 21 22 23 25 27 27 28 28 29 29 28 27 27 26 25 23 21 21 21 19 19 19 16 15 15 14 13 13 13 14 14 13 11 10 10 9 7 6 6 6 6 7 7 7 9 12 16 19 21 24 25 27 27 27 28 28 26 25 26 26 25 24 21 17 15 11 8 12 17 19 21 24 26 25 23 23 24 25 26 26 26 25
7 10 15 19 19 22 25 26 27 27 28 29 29 28 28 27 26 25 23 22 21 19 19 20 19 17 17 16 15 15 16 15 15 15 14 12 12 11 9 8 6 5 5 6 7 9 9 9 9 11 14 17 21 23 24 25 26 27 27 26 25 24 24 23 25 24 20 15 8 4 5 6 11 18 26 28 26 25 26 26 26 27 28 27 26
6 7 11 15 18 21 23 24 26 27 29 29 28 28 28 27 26 25 24 23 21 19 19 19 18 17 17 16 15 15 16 14 14 15 14 14 14 13 12 11 9 7 6 6 6 7 9 9 10 10 10 12 15 18 20 21 23 25 26 27 25 22 22 23 25 26 25 18 7 2 1 0 5 9 16 25 28 28 28 28 28 28 29 28 27
5 6 8 13 17 20 22 23 25 28 28 28 28 28 27 27 26 25 25 24 22 20 19 17 17 17 16 16 15 15 16 16 16 17 16 16 16 15 15 14 13 11 9 8 7 7 7 8 9 10 10 10 10 12 16 19 20 22 23 25 25 23 22 23 24 25 29 28 17 5 1 1 4 3 4 12 21 28 31 29 30 30 29 29 28
5 6 7 11 15 18 22 24 25 27 27 27 28 28 27 27 26 25 25 24 23 22 19 17 18 18 18 19 19 20 20 21 20 19 17 16 15 14 14 14 14 15 14 13 12 10 9 8 9 10 10 11 11 10 10 13 17 19 21 23 25 25 23 20 21 24 28 33 30 20 11 6 3 1 1 4 9 20 28 30 30 31 30 30 29
5 6 8 10 14 17 21 23 24 24 24 26 28 28 28 28 27 27 27 26 24 22 20 20 21 21 22 23 22 22 21 20 20 19 18 16 14 13 13 12 11 12 12 12 13 13 12 11 10 10 10 11 11 11 10 10 12 16 19 21 23 24 24 21 21 23 24 29 33 33 27 20 12 6 3 3 5 8 18 27 30 30 30 30 31
4 5 7 10 14 17 19 21 22 22 23 26 28 29 29 29 29 28 28 27 25 23 22 22 23 23 22 22 22 21 20 19 18 17 16 15 15 16 15 14 12 11 10 10 10 11 11 12 12 11 11 11 12 12 11 11 11 12 15 18 20 22 24 24 24 24 23 24 29 34 34 32 27 19 12 7 4 4 7 15 24 29 30 31 32
4 5 6 10 14 16 18 20 21 23 24 26 27 27 28 28 28 29 29 28 26 25 24 24 24 23 23 23 23 22 20 19 17 16 16 15 16 17 16 15 14 13 12 12 11 11 11 10 10 11 12 12 13 13 13 13 12 12 13 15 16 18 21 23 25 25 25 25 26 28 30 31 31 29 24 16 9 7 5 4 12 19 24 31 36
4 6 8 11 14 16 18 21 22 23 23 24 25 26 27 27 28 29 29 28 27 26 26 26 26 26 26 26 25 24 22 21 20 21 20 19 19 20 18 17 16 14 14 13 13 12 12 11 10 10 10 11 12 13 14 14 14 14 14 15 16 16 18 19 22 24 26 27 27 25 24 23 22 21 22 21 15 11 9 6 9 12 13 23 34
4 6 8 12 15 17 19 21 22 22 23 24 25 26 26 27 27 29 28 27 27 27 27 28 28 29 29 29 28 28 27 26 27 27 26 25 26 25 24 22 21 19 18 17 16 15 14 12 11 10 9 10 11 12 13 13 14 15 15 15 16 17 17 18 20 22 24 26 27 28 27 24 21 17 18 21 18 12 9 7 10 15 15 20 27
4 4 6 10 13 16 18 19 20 22 23 24 25 25 26 26 27 28 28 27 27 27 28 28 29 29 29 29 29 29 28 29 29 29 29 29 29 28 27 27 26 25 24 24 23 21 19 16 13 11 11 11 12 13 13 14 15 15 16 16 16 17 17 18 19 20 22 24 26 27 29 29 28 26 24 24 23 20 16 10 11 14 14 18 24
4 3 4 6 10 12 15 17 19 20 21 22 23 24 25 26 27 29 28 27 27 27 28 29 29 29 29 29 29 28 28 28 28 28 28 28 28 28 29 29 28 28 28 27 27 25 24 22 19 17 15 13 13 14 14 15 16 16 16 16 17 17 18 18 20 20 21 22 24 26 28 29 30 30 28 27 26 26 21 13 13 15 12 14 20
3 3 3 5 9 11 13 15 17 18 18 19 21 22 24 25 26 28 27 26 27 27 28 29 29 29 29 29 28 27 28 27 27 26 26 26 26 27 27 27 27 27 27 26 25 25 24 24 23 21 19 18 16 15 15 15 16 16 16 16 17 18 18 19 19 20 21 21 22 24 26 28 29 29 29 29 27 26 23 17 14 15 15 14 15
3 4 4 6 9 11 13 14 15 16 17 18 19 19 21 22 23 25 25 24 25 26 26 27 27 27 27 27 27 26 25 25 24 24 23 23 23 24 24 24 24 23 23 23 23 23 23 23 22 22 22 21 20 20 19 17 17 16 16 16 17 17 18 19 19 20 21 22 22 23 25 26 27 28 28 29 29 28 27 25 18 11 11 11 10
4 4 4 6 9 11 12 13 14 15 16 16 16 16 17 19 20 22 21 21 22 22 23 23 24 25 25 24 24 23 22 22 22 22 22 22 22 22 23 23 22 22 21 22 22 22 22 22 22 22 21 21 21 21 21 21 20 19 18 18 17 17 17 18 19 20 21 22 23 24 25 26 26 26 27 28 29 29 29 29 25 17 11 8 7
4 4 5 7 9 10 11 13 14 14 14 14 13 13 14 16 18 19 18 17 18 18 19 20 21 21 22 21 21 21 21 21 21 21 21 21 22 23 23 23 23 23 23 23 23 23 23 23 23 23 22 22 22 22 22 22 21 21 21 20 20 19 18 18 19 20 21 22 23 23 24 26 26 26 26 26 26 28 28 29 29 26 19 11 8
5 5 6 8 10 11 11 12 12 12 12 12 12 12 13 14 15 16 16 15 15 15 17 18 18 19 18 19 19 19 19 19 19 20 21 21 22 23 23 24 24 24 25 25 25 24 24 24 24 24 24 24 24 24 24 24 23 22 22 21 21 21 21 20 20 20 21 21 23 23 24 25 26 26 27 26 26 26 27 28 29 30 28 20 12
5 5 5 8 10 11 11 11 11 11 11 11 11 11 11 12 13 14 14 14 13 13 14 15 16 16 15 16 17 17 18 19 19 19 20 21 21 22 23 23 24 24 25 25 26 26 26 26 26 26 26 25 25 25 25 26 26 26 25 24 23 22 22 23 22 22 22 22 23 24 25 25 25 26 26 27 27 26 27 27 28 29 30 30 24
6 6 5 8 11 12 12 13 12 11 11 10 10 10 11 11 12 13 13 13 13 12 12 11 11 12 12 12 14 15 15 16 17 17 19 20 21 22 23 23 23 24 24 24 24 25 26 27 27 28 28 28 28 27 27 26 26 26 26 27 27 26 25 25 24 24 24 24 25 26 26 26 26 27 27 27 27 27 27 27 27 29 30 31 30
6 6 6 9 13 14 13 13 12 12 11 10 10 9 10 11 11 13 13 13 13 12 12 10 9 9 10 10 10 12 13 14 15 16 17 19 19 20 22 22 23 23 23 24 24 24 25 26 26 27 27 28 29 29 30 29 29 28 27 27 28 28 29 29 27 27 26 25 26 27 28 27 26 27 28 28 28 28 27 27 27 27 29 30 29
6 6 7 10 13 15 14 13 12 12 12 12 10 9 9 9 9 10 11 12 11 11 11 10 10 9 10 10 9 11 12 13 15 16 17 18 19 20 20 21 22 22 23 24 25 25 26 26 26 27 27 27 28 28 29 31 31 32 32 31 30 29 30 30 30 31 30 28 27 28 29 29 28 28 29 28 28 28 28 29 29 27 29 29 27
6 7 9 12 15 16 15 14 13 13 13 13 11 10 8 7 7 7 8 9 9 9 10 10 10 9 10 10 10 11 13 14 15 17 18 19 19 20 20 21 22 23 24 25 26 27 27 28 28 28 28 28 29 29 29 30 30 32 33 34 35 34 33 32 32 32 32 31 31 31 30 30 29 29 30 28 28 29 28 30 31 29 29 30 28
6 6 9 12 15 15 15 14 13 13 13 13 12 10 9 7 6 6 6 6 7 7 7 7 7 7 8 9 11 12 14 16 17 18 20 20 21 22 22 22 23 24 25 26 27 28 28 29 29 30 30 30 30 31 31 31 31 32 33 34 35 36 36 36 36 35 34 33 32 33 34 32 29 30 31 31 29 29 29 29 31 31 30 30 29
5 6 7 9 11 13 14 14 14 15 14 13 12 11 10 9 7 6 5 5 5 4 4 4 4 6 8 10 12 14 16 18 19 21 22 23 24 24 24 25 25 26 27 28 29 30 30 30 30 30 31 31 31 32 32 33 33 33 34 35 35 36 37 38 39 39 38 36 34 35 36 34 31 31 32 32 30 29 29 28 30 31 30 30 30
7 6 6 6 8 11 14 15 17 16 15 14 13 12 11 9 7 6 5 4 4 2 1 3 6 8 10 12 14 16 18 20 22 24 25 25 26 26 27 27 28 28 30 30 31 32 31 32 32 32 31 32 32 32 32 32 33 33 33 34 34 35 36 37 38 39 40 40 38 38 38 36 33 33 33 33 32 31 31 30 30 31 30 30 30
6 6 5 6 7 11 15 17 18 17 15 14 14 13 13 11 9 8 7 4 3 2 3 6 8 9 11 12 14 16 18 21 23 26 27 28 27 28 28 29 29 30 32 33 33 33 33 33 33 33 33 32 32 33 33 32 32 31 31 32 33 34 35 36 37 38 39 40 40 41 41 40 37 35 35 35 34 32 33 33 33 33 31 29 29
5 6 7 7 7 10 15 18 18 16 15 15 15 14 14 12 10 9 7 5 5 5 6 7 8 9 11 13 15 17 19 22 25 28 29 30 29 30 30 31 31 31 32 33 34 35 36 35 34 34 33 33 34 34 34 32 31 30 30 31 33 34 35 36 36 38 38 39 40 41 42 42 41 39 37 37 35 34 33 33 34 34 32 30 30
7 7 8 8 8 10 14 17 17 17 17 17 16 16 14 13 11 9 8 8 7 7 7 7 8 10 12 14 16 19 21 25 27 29 30 31 31 32 33 34 35 35 35 35 36 36 35 36 36 35 35 35 34 35 35 31 30 30 31 31 32 32 33 34 35 37 38 39 40 40 41 42 42 42 41 40 39 37 34 34 35 34 33 32 31
8 8 8 8 8 12 15 16 17 19 20 19 18 17 16 14 13 11 11 10 9 8 7 7 8 10 13 15 18 21 24 27 29 30 31 31 32 34 36 37 38 39 39 39 39 38 36 36 36 37 37 36 36 37 35 30 28 29 30 31 32 33 33 34 35 37 38 39 40 40 41 42 42 43 43 44 44 43 40 38 39 37 34 33 33
8 8 7 7 8 12 14 16 19 21 21 21 20 18 17 15 14 12 11 9 8 7 6 6 8 11 13 16 20 23 26 28 29 30 31 32 33 35 36 37 39 39 40 39 39 39 39 37 36 37 38 39 39 39 34 30 29 30 30 31 33 35 35 36 36 37 39 40 40 40 40 41 41 42 42 43 43 44 44 43 42 41 39 37 36
7 7 7 6 7 10 13 16 19 20 19 18 17 15 13 11 10 7 6 5 5 5 5 7 9 12 15 18 22 25 26 27 28 29 30 32 34 35 36 37 37 37 38 39 39 39 39 38 36 37 38 39 40 39 33 31 32 32 31 31 33 35 36 36 36 37 38 40 41 41 41 42 42 42 42 42 42 43 44 45 44 43 42 41 41
7 7 6 7 9 10 12 12 13 13 13 12 11 9 6 5 5 5 4 3 3 5 7 10 12 15 18 21 23 24 25 26 27 29 31 32 33 35 35 35 36 36 36 37 38 38 38 37 35 35 37 39 39 37 32 31 33 33 33 33 34 36 38 39 40 40 40 41 41 40 41 42 42 42 42 42 42 42 43 43 44 43 42 43 43
6 6 6 8 9 9 8 7 6 6 7 7 7 7 7 6 5 4 3 4 6 8 10 13 15 17 19 21 22 23 24 26 27 29 30 31 32 33 34 34 35 36 36 37 38 37 37 35 33 34 36 39 39 35 32 33 34 34 34 34 34 36 38 39 40 41 41 41 41 41 41 43 43 42 41 41 41 41 41 40 41 42 42 43 43
5 5 7 10 11 10 10 9 9 10 10 10 10 9 8 6 5 4 5 6 9 11 13 15 16 17 18 19 21 22 24 26 27 28 29 30 31 32 33 33 34 35 35 36 36 36 36 35 34 34 36 40 40 34 32 33 34 33 33 33 32 33 34 35 37 38 38 39 41 42 43 43 44 43 42 40 39 40 40 39 40 40 42 44 44
8 9 12 14 14 14 14 14 14 14 13 12 11 10 8 7 5 6 7 8 10 12 13 14 15 15 17 18 20 22 24 25 26 27 28 29 30 30 31 32 34 35 34 34 35 35 35 36 36 35 36 41 41 34 31 32 32 31 32 31 31 31 32 34 35 36 36 36 37 38 38 39 40 41 41 39 38 39 39 40 40 41 41 42 44
11 12 13 13 13 14 15 16 15 14 13 11 10 9 7 6 5 6 8 9 10 11 12 13 14 14 16 18 20 22 23 24 25 27 28 28 29 30 30 30 32 34 34 34 35 36 35 34 36 36 36 39 40 34 30 31 31 31 31 31 30 31 31 32 33 33 33 33 33 33 34 36 38 40 40 39 38 38 40 40 41 41 41 41 43
11 11 12 12 13 15 15 16 15 14 11 10 8 7 5 5 5 7 8 9 11 11 12 13 14 15 18 19 20 21 22 24 24 25 27 28 28 30 30 29 30 33 35 35 35 36 35 33 34 36 35 36 39 35 30 31 32 30 30 31 30 30 31 31 32 32 31 31 31 31 32 33 35 36 37 36 36 36 38 39 39 40 40 39 41
10 13 14 15 16 15 15 15 14 12 10 8 7 6 5 6 7 8 9 10 11 11 12 14 15 17 18 18 19 20 21 22 24 25 26 27 28 29 30 30 30 32 34 35 34 35 36 34 34 36 34 34 37 37 32 31 32 30 29 31 31 31 31 32 32 33 32 32 32 33 33 34 36 37 38 37 36 36 36 37 37 36 36 38 40
10 13 15 16 17 17 16 15 13 11 10 8 7 6 6 7 8 8 9 10 11 12 13 15 16 17 18 17 18 19 20 21 23 25 25 26 27 29 30 31 32 32 33 34 33 33 36 36 34 35 35 34 36 37 33 30 31 30 29 31 31 32 33 33 33 34 35 34 34 34 33 32 33 35 36 36 36 36 36 37 37 35 36 39 42
12 15 16 18 18 17 16 15 13 11 9 8 7 6 6 7 8 9 9 10 11 13 15 16 17 17 17 18 18 18 19 21 22 24 26 26 27 28 30 31 32 33 33 33 33 33 34 35 34 34 35 34 34 35 33 31 30 30 30 30 32 33 34 36 36 35 34 34 33 32 32 32 33 35 36 37 37 37 37 37 37 37 39 41 43
12 16 19 20 18 17 16 14 12 11 9 8 7 7 7 8 9 9 10 11 12 14 15 15 16 16 17 18 18 18 19 21 21 22 25 27 27 28 29 31 32 33 33 32 32 32 33 34 34 33 34 35 34 33 32 31 30 30 30 30 32 34 34 35 37 36 34 34 35 37 37 37 37 38 38 39 39 39 39 40 40 40 41 42 42
16 18 21 21 19 18 17 14 12 11 10 9 8 7 8 8 9 9 10 11 12 13 14 15 16 17 17 18 18 19 19 20 21 22 24 26 28 29 29 30 31 31 32 31 31 31 31 32 33 33 33 34 34 33 33 31 30 30 30 30 32 33 33 34 36 37 37 39 41 42 42 39 38 38 39 39 40 40 40 40 41 43 44 45 44
19 21 22 22 21 19 17 15 13 11 10 9 8 8 8 8 9 9 10 12 12 13 14 15 16 17 18 18 18 19 20 20 21 22 23 26 28 29 29 29 29 29 30 30 30 30 30 31 33 34 35 35 34 34 34 33 30 30 30 31 32 33 33 34 36 38 39 41 42 42 41 39 38 38 39 40 41 41 41 40 40 41 43 44 44
20 21 22 22 21 19 17 15 13 12 10 10 8 8 8 8 9 10 11 12 12 13 14 15 16 17 18 19 19 20 21 21 21 22 23 25 28 29 29 29 28 28 28 28 29 29 29 31 31 32 33 33 33 34 35 34 32 31 31 32 33 34 34 35 37 39 40 41 42 43 42 41 40 40 40 39 40 39 38 38 38 39 40 41 41
20 21 22 21 19 17 16 14 13 12 10 9 8 8 8 9 9 10 10 11 12 13 14 15 16 17 18 19 20 21 22 22 22 22 23 25 27 28 29 29 28 28 27 27 28 28 28 29 29 30 31 33 33 33 34 34 33 33 34 35 35 36 37 37 38 39 40 41 43 43 43 42 41 40 39 39 38 38 37 37 38 39 39 39 39
22 24 23 21 19 17 16 14 13 12 10 9 8 7 8 9 9 9 10 11 12 13 14 16 16 18 18 19 20 22 23 23 23 23 24 25 26 27 28 28 28 28 27 26 26 27 28 28 28 29 31 32 33 34 34 34 33 33 35 36 36 36 37 37 38 39 41 42 43 43 42 41 40 40 40 40 40 39 39 38 39 39 38 38 39
22 23 23 21 19 17 15 14 12 10 9 9 7 7 8 9 9 8 9 10 11 12 14 16 17 18 19 19 19 21 23 23 24 24 24 26 27 28 28 28 28 28 28 28 29 30 32 32 30 30 32 32 32 32 32 33 34 34 35 36 34 34 34 34 35 38 40 41 41 41 40 38 37 38 38 38 37 37 37 37 37 37 37 37 38
21 22 22 20 18 15 13 12 10 9 9 8 7 7 8 9 8 8 8 10 11 12 14 16 17 17 18 19 20 21 22 23 24 25 25 26 27 27 28 29 29 28 27 29 32 33 34 34 32 33 33 32 32 32 33 35 36 37 37 38 37 36 36 35 35 37 37 35 32 31 30 29 30 32 32 31 31 33 34 35 36 37 36 35 36
20 20 19 17 14 13 11 10 9 8 8 8 7 7 7 8 7 7 8 10 11 13 14 16 17 18 19 20 21 21 22 22 23 24 26 27 28 27 26 26 28 28 27 28 31 33 34 35 34 34 33 32 33 35 36 36 37 38 39 39 39 39 39 38 38 39 37 31 25 24 24 25 26 27 26 27 29 31 31 32 33 34 33 33 33
20 19 17 15 13 11 10 9 8 8 8 8 8 7 7 7 7 7 8 9 10 12 15 16 17 18 19 20 21 21 22 22 22 23 24 26 29 31 30 27 25 25 26 28 30 31 32 32 32 32 33 32 33 35 36 36 37 38 39 38 38 39 39 38 38 38 33 26 23 22 22 24 27 27 27 28 30 29 28 29 30 31 32 33 32
Wind_Direction
34 37 40 42 45 49 50 53 56 58 59 62 65 66 66 68 68 66 64 68 70 69 73 76 77 79 80 81 79 73 69 66 63 56 51 48 47 47 47 42 18 329 286 272 269 263 256 250 246 243 243 243 243 242 241 241 241 240 238 233 230 229 230 233 233 229 223 221 226 232 234 234 234 235 237 240 242 242 241 239 240 241 242 243 244
37 37 38 41 45 50 52 53 54 54 55 58 62 64 67 69 69 67 67 69 68 68 72 74 74 76 79 80 80 77 72 68 65 60 55 53 50 48 50 50 40 26 12 1 350 333 311 287 270 260 254 250 248 245 242 239 236 236 234 231 231 231 233 234 229 220 213 215 220 236 245 243 241 240 240 240 240 241 240 240 240 240 242 243 244
33 31 32 36 40 48 53 53 53 54 56 59 62 64 66 67 68 69 70 71 71 73 75 76 78 80 80 80 79 77 72 72 73 68 63 58 53 47 43 38 29 21 9 1 359 356 351 340 322 298 278 262 252 246 243 240 237 236 235 234 233 230 232 234 229 223 215 211 214 243 255 255 255 248 244 241 238 239 240 240 241 241 243 244 244
36 30 25 30 34 41 49 52 54 55 56 58 60 62 62 64 66 69 71 73 75 78 81 85 88 89 88 86 86 84 80 82 83 74 65 58 54 48 41 35 25 15 1 350 345 348 348 346 343 334 319 296 273 259 253 250 244 241 240 239 235 230 230 232 232 228 220 212 204 218 203 290 268 255 249 245 239 237 238 239 240 243 243 243 243
41 36 23 30 34 35 42 51 56 57 56 56 59 62 63 64 67 69 71 73 75 79 85 93 95 94 94 91 87 81 73 71 68 62 60 58 56 51 46 42 37 32 23 11 359 351 347 343 342 340 340 335 317 293 274 266 259 253 249 245 240 235 235 236 235 230 225 223 218 203 143 235 249 260 278 260 242 234 236 238 239 242 243 243 243
46 43 35 38 42 41 41 44 51 55 57 60 63 66 67 68 70 71 71 72 73 76 81 88 89 87 85 80 72 66 59 54 54 54 57 58 58 56 52 48 45 43 38 30 23 14 3 352 346 342 343 344 343 334 309 288 277 269 263 256 250 246 244 243 241 237 232 229 226 226 234 238 255 273 265 290 258 237 235 236 237 239 241 243 245
44 43 41 44 48 48 45 43 46 51 57 64 67 68 69 70 71 71 71 71 71 75 78 82 82 80 80 77 72 68 61 56 56 60 61 62 62 60 57 53 47 43 39 34 31 28 24 15 5 355 350 348 346 344 338 320 298 285 277 270 265 258 251 247 248 247 241 234 232 233 238 245 262 271 233 277 306 257 239 236 237 238 240 243 245
39 44 41 43 49 53 52 50 51 55 59 64 67 68 69 69 71 73 72 72 72 74 77 78 79 79 78 77 73 70 66 62 61 62 63 64 64 60 58 58 52 44 35 26 23 23 25 24 21 15 6 358 353 349 345 338 322 304 291 282 276 268 258 251 250 250 247 244 242 240 241 247 255 259 259 264 281 290 264 243 239 240 240 243 246
34 46 46 44 49 56 60 61 60 62 64 66 68 70 71 71 73 74 73 73 73 75 77 77 78 78 76 74 71 68 66 65 64 62 60 59 58 55 54 55 52 48 40 29 23 19 17 15 17 18 15 9 2 356 350 344 337 325 313 303 293 281 270 260 254 251 249 250 251 248 247 249 253 257 260 264 263 266 275 257 243 242 241 243 245
37 47 53 54 57 60 66 69 67 67 69 71 72 72 73 73 74 74 72 73 74 75 76 76 76 76 74 71 69 66 64 63 62 59 56 55 55 52 49 48 45 42 36 27 22 21 18 13 9 7 5 3 0 357 352 346 341 335 328 320 313 303 293 280 269 263 258 255 255 254 252 250 252 255 256 258 259 254 253 259 250 239 239 247 248
48 48 55 62 67 67 69 69 68 70 72 73 73 73 73 73 74 75 73 74 75 75 76 75 74 73 71 70 67 63 60 59 56 53 51 52 52 51 50 49 46 42 38 32 26 20 16 13 10 4 355 349 349 351 350 346 340 335 331 326 322 317 311 303 291 279 271 265 260 257 256 253 251 252 252 251 250 248 254 264 253 245 243 249 252
60 52 57 65 68 67 67 66 67 69 71 71 72 74 75 75 76 76 73 74 75 75 75 74 73 72 71 70 67 64 61 59 56 52 49 49 48 48 49 48 46 44 41 38 35 30 25 20 13 5 357 347 343 341 338 337 333 329 327 325 324 321 318 315 308 299 288 277 271 265 262 259 256 256 256 253 249 251 256 261 262 258 252 251 255
78 69 62 67 68 66 66 66 67 68 69 73 75 76 77 77 78 77 73 73 76 76 76 75 74 73 73 72 70 67 65 63 60 56 53 50 48 47 46 44 42 40 38 37 36 34 33 30 25 19 9 357 344 335 328 326 325 323 321 320 321 321 321 319 316 311 303 291 284 278 271 266 263 261 260 257 254 255 255 259 266 263 257 261 262
109 101 84 76 76 74 74 73 73 73 74 78 80 81 82 81 81 80 77 76 78 78 78 77 76 75 74 73 70 68 66 63 61 58 55 52 50 48 46 44 41 38 36 34 32 32 33 32 30 28 23 16 7 356 346 337 329 324 319 317 317 317 317 319 318 315 311 304 296 290 283 277 273 270 266 261 258 255 252 256 264 263 258 260 265
128 111 98 91 88 84 82 82 82 84 84 85 85 86 88 87 87 86 82 79 79 79 78 77 76 74 73 71 69 66 64 62 58 55 52 49 47 45 44 41 39 36 33 30 27 26 26 25 25 24 23 21 17 13 8 1 352 342 332 323 317 315 313 311 313 314 312 310 307 301 296 290 285 282 276 270 264 259 256 255 256 263 266 260 259
145 126 112 103 98 94 92 91 89 88 87 87 88 91 94 94 93 90 86 84 82 80 78 75 73 71 68 66 63 61 58 55 51 47 45 42 39 38 36 34 32 30 27 24 22 19 17 16 16 15 14 13 11 10 8 5 2 358 352 344 334 327 318 311 309 309 309 309 308 307 304 300 297 293 288 282 275 269 263 259 254 250 260 268 263
167 158 142 121 111 106 102 95 91 90 92 95 98 100 102 100 99 97 94 91 87 83 80 75 72 68 64 60 56 52 49 45 41 38 34 33 31 29 27 25 23 21 19 17 15 13 11 8 7 6 5 4 2 1 359 358 357 356 354 352 348 340 328 320 315 310 308 307 305 304 304 303 303 301 296 292 288 281 273 267 259 252 252 258 269
182 172 152 138 128 118 109 102 100 105 109 111 110 108 105 102 102 101 97 91 85 81 78 73 69 65 61 57 51 46 42 38 34 30 26 25 23 21 19 17 15 13 12 11 8 6 5 3 1 360 358 357 355 354 352 350 349 347 347 346 345 342 335 331 326 318 313 309 304 302 301 301 301 301 300 298 296 291 284 277 269 262 255 250 256
184 175 164 153 143 133 128 130 133 132 129 124 119 115 111 108 107 103 98 92 87 82 78 73 67 62 58 54 47 42 38 32 28 24 20 18 16 14 12 10 8 6 4 3 1 359 358 356 355 353 352 351 350 349 348 346 344 342 340 338 338 336 333 331 329 326 321 314 308 304 301 300 299 298 299 298 297 296 292 286 279 271 262 256 254
186 181 180 165 157 157 157 161 162 155 146 136 129 125 120 117 115 111 107 103 97 91 88 84 77 67 62 58 48 40 36 29 25 20 15 13 10 7 5 4 2 1 359 359 357 354 352 349 348 346 345 344 344 343 343 341 339 337 335 334 333 331 328 325 324 323 322 319 313 309 305 302 300 298 296 295 295 295 294 292 286 279 271 264 259
193 183 179 173 170 172 172 174 175 169 164 156 147 137 127 121 118 114 111 108 104 101 99 98 95 80 67 64 49 37 34 26 20 16 11 8 5 1 360 358 357 356 354 353 351 349 347 343 341 339 338 337 336 336 336 335 333 331 330 328 327 326 324 321 320 317 317 316 313 311 309 306 304 300 297 296 294 293 293 291 288 283 276 270 264
196 186 181 180 177 177 177 180 182 180 179 174 166 156 140 127 118 114 111 109 107 105 102 97 93 81 64 59 45 28 24 17 12 9 4 3 0 357 354 351 351 350 348 346 344 342 340 337 335 332 330 329 327 327 327 327 325 324 323 322 322 321 318 316 315 313 312 312 309 306 305 306 306 302 298 297 295 294 293 290 286 283 277 273 267
198 188 186 184 183 184 183 184 187 186 183 180 176 170 158 143 132 126 120 114 108 102 98 89 81 70 54 43 30 17 11 6 3 359 356 355 352 350 349 345 344 342 340 339 337 335 333 332 329 327 325 322 320 319 318 317 316 315 315 315 315 315 314 311 309 308 307 307 305 302 299 300 301 300 298 296 294 292 291 288 285 282 277 274 270
199 191 186 185 187 189 187 189 192 189 185 184 181 177 171 166 163 153 137 123 111 99 93 83 66 50 33 22 14 7 2 359 356 353 350 348 345 344 342 340 339 337 335 334 332 330 329 327 325 324 322 319 317 316 314 311 309 309 308 308 307 308 308 307 306 305 304 302 300 298 297 296 294 292 292 293 292 290 287 285 284 281 278 275 271
194 190 185 183 186 188 190 195 197 192 189 189 187 187 186 184 181 172 156 141 127 107 88 64 31 14 4 360 358 355 354 353 351 348 345 341 340 338 338 337 335 333 331 330 329 328 327 324 322 320 318 316 315 314 311 309 308 307 306 305 305 304 304 303 303 302 301 300 298 295 294 293 290 285 284 286 287 288 286 283 280 279 278 276 273
189 186 182 180 183 190 195 199 199 194 192 192 192 193 195 195 194 186 176 167 163 150 41 1 350 349 347 346 346 345 345 346 345 343 340 337 336 335 334 334 333 331 329 328 327 326 325 322 320 317 315 313 312 310 307 306 305 305 305 304 303 303 302 301 300 299 298 298 296 294 292 290 286 282 280 281 281 282 283 282 279 278 276 274 273
185 175 177 180 186 194 196 196 197 195 192 195 196 197 199 202 203 200 197 197 208 250 318 333 333 335 335 334 335 335 336 337 337 336 334 332 332 331 331 331 330 328 326 326 325 323 321 320 317 315 313 311 310 307 304 303 303 303 303 302 302 301 299 298 296 295 294 293 293 292 291 289 286 282 280 279 278 277 278 278 279 279 278 274 271
173 169 178 186 191 197 196 195 196 194 196 199 202 205 206 208 211 212 217 236 261 279 302 319 321 323 325 325 327 328 329 331 331 329 328 327 327 327 327 327 326 325 324 322 321 320 318 317 315 313 311 310 308 306 304 304 304 304 302 300 299 298 297 295 294 293 292 291 289 289 288 288 286 283 281 280 278 275 273 273 274 275 274 272 269
178 184 190 191 193 196 197 198 197 197 201 205 208 211 213 217 225 231 241 260 271 275 288 304 310 313 318 320 322 323 325 326 326 325 325 324 323 323 322 322 322 321 321 319 318 317 316 315 314 312 310 309 307 305 304 305 306 305 303 301 298 296 294 292 291 290 289 288 287 286 286 285 285 284 283 281 278 275 272 269 269 268 266 265 265
187 195 199 197 200 201 201 203 203 205 209 213 215 218 221 227 235 241 246 254 257 259 272 288 300 309 314 315 317 318 320 322 322 322 322 321 320 320 319 319 318 317 317 317 316 315 314 313 312 311 309 308 305 303 304 306 306 304 303 301 299 296 293 291 289 288 286 285 285 284 283 283 283 283 282 281 279 278 274 269 268 266 262 259 258
199 204 208 209 210 209 209 210 212 215 219 221 224 227 231 235 241 243 244 243 241 246 263 285 299 308 312 313 315 316 318 319 318 317 317 317 317 317 316 315 315 314 314 314 313 313 311 310 310 309 307 306 304 303 306 308 307 305 304 302 299 296 294 291 288 286 285 285 284 283 283 283 282 281 280 280 279 279 277 274 271 268 264 259 255
213 217 217 219 220 221 224 225 226 228 231 233 236 238 240 239 238 232 224 218 224 248 278 297 306 311 313 314 314 314 313 314 314 315 315 315 314 313 314 314 313 313 313 311 310 309 308 307 308 307 305 304 302 303 308 310 308 307 306 303 300 297 294 291 288 286 284 284 284 284 283 281 280 279 279 279 278 278 277 276 274 271 267 262 258
218 223 222 221 225 229 233 238 243 246 247 245 240 234 223 206 192 182 185 212 256 287 299 306 312 314 314 315 312 311 310 310 312 313 312 312 312 312 313 313 312 312 311 309 307 306 304 305 306 306 304 302 301 304 309 310 307 306 306 304 300 296 293 290 288 286 284 283 283 284 284 282 280 278 277 277 277 277 277 277 276 274 270 265 261
222 221 215 207 208 210 212 214 219 219 214 206 195 181 170 166 170 188 227 269 288 296 302 308 311 312 311 310 308 308 309 309 311 311 311 311 311 311 311 311 311 310 308 306 305 304 304 305 306 305 304 302 301 305 309 308 306 305 304 302 299 294 291 289 287 286 285 284 283 283 282 281 280 278 277 276 276 277 278 276 275 273 271 268 265
223 217 208 200 192 186 182 177 173 172 172 172 170 168 170 179 197 232 261 282 290 296 303 305 306 306 304 304 306 308 309 310 311 311 310 310 310 311 311 312 310 308 306 304 304 303 304 306 306 306 304 302 301 306 309 307 306 306 305 302 298 295 292 290 288 287 286 285 284 283 281 279 279 278 277 276 277 278 278 277 275 272 270 268 266
211 204 202 200 194 188 182 173 169 170 171 173 174 177 185 201 223 249 270 285 292 298 303 303 304 305 304 305 308 309 311 311 312 311 310 311 312 312 312 312 310 307 305 304 303 303 304 305 305 305 303 301 302 306 308 306 305 306 305 303 299 295 292 289 287 287 287 286 285 283 282 282 281 280 279 278 278 279 279 278 277 274 271 268 265
223 215 209 205 198 189 182 175 170 171 172 174 178 186 199 215 237 264 281 292 298 303 306 307 307 306 305 308 310 311 312 312 311 311 312 313 314 313 313 312 309 306 305 304 303 303 303 303 303 303 302 301 303 306 307 305 304 304 303 300 297 294 291 289 289 288 288 287 285 284 284 285 284 283 283 282 280 278 277 277 276 275 273 269 265
227 216 206 197 188 182 178 175 172 171 174 178 185 197 216 240 267 285 294 302 307 310 309 307 306 305 307 311 313 312 311 311 311 313 314 315 314 313 312 311 308 305 303 302 302 302 301 301 301 301 302 301 302 304 305 303 302 302 300 298 295 292 290 290 290 290 290 289 288 288 288 288 287 286 286 285 282 278 275 273 272 273 273 271 267
224 213 202 189 180 176 174 175 176 176 180 188 201 221 247 269 281 289 297 305 308 308 306 304 304 306 309 313 314 313 312 312 314 315 315 315 314 313 312 310 306 303 300 300 300 300 300 301 301 301 302 301 301 302 303 302 300 300 298 296 294 291 289 290 290 290 290 289 289 290 289 288 287 287 287 287 284 281 277 274 272 272 272 270 269
220 211 200 187 179 176 176 178 182 186 191 203 220 240 259 272 280 289 299 305 304 303 302 302 304 308 312 316 316 315 314 315 316 317 317 315 314 313 312 309 305 301 299 298 299 299 299 301 302 303 304 302 301 301 302 301 299 299 298 296 294 291 289 289 289 288 288 287 288 288 288 288 288 288 288 287 285 282 279 275 271 268 267 268 270
218 203 191 182 181 183 184 185 190 195 203 217 231 247 262 272 284 296 301 301 299 298 299 301 306 312 317 319 317 316 316 318 319 319 317 314 314 313 310 306 304 301 299 298 299 300 300 301 303 305 303 301 300 300 300 300 298 298 297 296 293 290 288 288 287 285 285 286 288 289 290 290 291 290 289 288 286 283 280 277 271 265 263 265 267
197 189 186 182 181 184 187 189 195 203 213 226 238 255 267 277 289 297 297 296 295 297 300 304 311 317 319 319 318 318 319 320 321 320 317 314 314 312 307 304 302 301 299 298 299 301 301 302 304 304 302 300 300 299 299 298 296 296 297 295 292 289 288 288 287 286 286 287 287 287 287 287 287 287 286 285 283 282 280 279 276 273 271 270 267
182 186 190 188 186 187 190 194 200 208 221 234 247 261 270 281 292 296 295 294 296 299 304 309 315 319 319 319 319 320 321 322 322 322 317 314 312 309 305 303 302 301 300 299 301 303 303 303 304 303 300 300 301 301 299 297 294 295 296 295 292 290 290 289 287 286 286 287 287 286 286 284 283 282 282 282 281 280 278 277 276 275 274 273 272
193 195 194 192 190 190 191 197 205 213 228 240 250 262 273 286 296 295 293 295 299 303 308 313 318 319 319 320 321 322 323 323 324 323 317 312 310 307 304 303 301 300 299 299 301 304 304 303 302 300 300 301 302 302 301 298 294 293 294 295 292 290 289 288 286 285 285 285 286 285 283 281 280 281 282 283 283 283 282 281 280 278 275 273 273
200 197 195 194 195 194 193 198 208 219 232 242 250 265 280 291 295 294 294 298 302 306 310 315 319 320 320 321 321 323 325 325 325 323 316 310 308 306 303 302 301 300 299 299 301 303 303 300 297 295 296 300 303 303 302 300 297 293 293 291 287 284 284 283 282 282 281 282 282 283 284 286 287 288 289 288 287 285 283 282 281 280 278 273 272
198 194 193 193 194 195 196 201 211 223 234 243 255 274 288 292 291 292 295 299 303 308 312 316 319 319 321 322 321 323 326 326 324 321 314 309 307 304 301 301 301 300 299 300 300 302 300 296 293 292 294 298 301 301 301 301 301 297 293 288 282 279 278 277 277 276 276 277 278 280 285 288 289 288 287 284 282 280 278 278 279 279 278 275 273
201 197 194 192 191 194 198 204 214 224 234 247 266 285 292 292 290 290 294 297 302 308 312 315 318 319 320 322 323 324 326 325 321 319 314 310 308 304 300 299 299 300 301 300 299 298 296 291 289 292 295 297 300 301 301 302 301 296 292 288 284 281 279 276 275 274 274 275 276 277 279 281 282 283 282 279 278 277 276 276 277 277 276 274 273
203 197 194 193 195 199 205 211 218 226 237 255 277 293 292 289 289 289 291 296 302 308 312 314 317 318 320 322 323 323 324 321 318 316 313 309 308 306 301 299 300 301 299 297 295 292 288 287 290 294 297 297 298 299 300 301 299 296 294 294 291 290 287 281 277 276 276 275 275 275 273 272 273 275 275 274 274 273 272 273 274 275 275 274 275
200 197 197 199 202 206 210 217 224 232 245 264 282 291 287 284 285 287 290 296 304 309 311 314 316 318 319 322 323 323 322 319 315 314 311 309 309 306 301 299 301 301 297 294 295 293 291 292 294 297 298 298 298 300 302 303 302 301 300 301 300 298 296 293 289 288 287 284 280 276 272 270 268 268 269 271 272 272 272 272 273 275 274 273 273
197 196 199 203 207 211 215 221 229 239 254 271 283 285 280 276 277 281 288 296 306 310 310 313 316 318 320 322 323 322 321 317 314 312 311 311 312 310 303 297 297 300 299 296 295 294 296 298 300 300 300 299 299 302 304 305 305 304 304 305 305 303 302 302 301 301 302 300 295 289 284 282 279 276 276 276 276 275 274 272 272 273 272 271 272
196 195 197 203 210 216 220 226 235 249 263 277 285 283 273 268 271 277 286 297 306 307 306 310 315 318 321 323 321 320 319 315 312 311 310 310 313 317 318 313 305 301 303 303 300 298 299 301 302 303 305 304 303 305 307 307 307 308 308 309 308 307 306 306 305 306 306 304 298 293 291 290 289 286 283 281 278 276 273 271 270 271 270 270 272